Home   Weather   Al Ain   Past weeks

Flag for United Arab Emirates Past Weather in Al Ain, Abu Dhabi, United Arab Emirates — Yesterday and Last 2 Weeks

Now
75 °F

Passing clouds.


Feels Like: 77 °F
Forecast: 58 / 77 °F
Wind: 6 mph from West

Location: Al Ain International Airport

Current Time: Jan 18, 2017 at 4:17:31 pm

Latest Report: Jan 18, 2017 at 3:00 pm


Visibility: N/A

Pressure: 30.07 "Hg

Humidity: 36%

Dew Point: 46 °F

Location of Al AinLocation

Past Weather in Al Ain — Graph

°F

Al Ain Temperature Yesterday

Maximum temperature yesterday: 77 °F (at 3:00 pm)
Minimum temperature yesterday: 57 °F (at 4:00 am)
Average temperature yesterday: 65 °F

High & Low Weather Summary for the Past Weeks

 TemperatureHumidityPressure
High84 °F (Jan 11, 2:00 pm)100% (Jan 4, 3:00 am)30.18 "Hg (Jan 4, 3:00 am)
Low52 °F (Jan 16, 7:00 am)17% (Jan 9, 3:00 pm)29.89 "Hg (Jan 13, 2:00 pm)
Average66 °F64%30.05 "Hg
* Reported Jan 3 3:00 pm — Jan 18 3:00 pm, Al Ain, Weather by CustomWeather, © 2017

Note: Actual official high and low records may vary slightly from our data, if they occured in-between our weather recording intervals... More about our weather records

Advertising

Al Ain Weather History for the Previous 24 Hours

Scroll right to see more
 ConditionsComfort  
Time TempWeatherWind HumidityBarometerVisibility
3:00 pm
Wed, Jan 18
75 °FPassing clouds.6 mph36%30.07 "HgN/A
2:00 pm75 °FPassing clouds.8 mph39%30.07 "HgN/A
1:00 pm72 °FPassing clouds.8 mph44%30.09 "HgN/A
12:00 pm72 °FPassing clouds.7 mph44%30.12 "HgN/A
11:00 am68 °FClear.9 mph56%30.15 "Hg5 mi
10:00 am66 °FClear.8 mph64%30.18 "Hg4 mi
9:00 am61 °FClear.6 mph77%30.15 "Hg4 mi
8:00 am57 °FHaze.6 mph88%30.12 "Hg3 mi
7:00 am55 °FClear.6 mph88%30.12 "Hg4 mi
6:00 am55 °FClear.6 mph88%30.09 "Hg4 mi
5:00 am55 °FClear.2 mph88%30.09 "Hg5 mi
4:00 am57 °FClear.2 mph88%30.09 "Hg5 mi
3:00 am57 °FClear.5 mph88%30.07 "Hg5 mi
2:00 am59 °FClear.5 mph82%30.09 "Hg5 mi
1:00 am61 °FClear.3 mph77%30.07 "Hg5 mi
12:00 am61 °FClear.2 mph77%30.09 "Hg5 mi
11:00 pm
Tue, Jan 17
63 °FClear.3 mph73%30.09 "Hg5 mi
10:00 pm64 °FClear.6 mph68%30.09 "Hg10 mi
9:00 pm64 °FClear.8 mph68%30.09 "Hg10 mi
8:00 pm68 °FClear.9 mph60%30.09 "Hg10 mi
7:00 pm70 °FClear.10 mph53%30.07 "Hg10 mi
6:00 pm72 °FClear.13 mph50%30.04 "Hg6 mi
5:00 pm75 °FClear.12 mph44%30.04 "Hg6 mi
4:00 pm75 °FSunny.13 mph44%30.04 "Hg10 mi
Weather by CustomWeather, © 2017

See weather overviewHow to use our weather pages